Location: Nantong Television Tower
(32.0188°N, 120.8512°E)
Time: 01:27:34
(UTC+08:00)

Vanguard 3 - Visible Passes

Search period start: 20 April 2014 00:00
Search period end: 30 April 2014 00:00
Orbit: 507 x 3281 km, 33.4° (Epoch: 17 April)

Date Brightness Start Highest point End Pass type
(mag) Time Alt. Az. Time Alt. Az. Time Alt. Az.
20 Apr 11.2 03:17:11 10° SSE 03:26:17 16° SE 03:36:15 10° E visible
21 Apr 11.0 04:12:32 10° SSW 04:27:01 33° SE 04:43:17 10° E visible
22 Apr 11.0 03:03:24 10° S 03:13:48 20° SE 03:25:50 10° E visible
23 Apr 10.8 03:59:56 10° SSW 04:14:23 38° SE 04:31:38 10° E visible
24 Apr 10.8 02:50:40 11° S 03:01:15 24° SE 03:14:43 10° E visible
25 Apr 11.0 01:45:17 10° SE 01:48:47 11° SE 01:52:35 10° ESE visible
25 Apr 10.6 03:47:55 11° SSW 04:01:44 43° SE 04:19:42 10° ENE visible
26 Apr 10.5 02:40:20 17° S 02:48:40 28° SE 03:03:09 10° E visible
26 Apr 10.4 04:46:59 10° SW 05:03:04 65° SSE 05:22:47 10° ENE visible
27 Apr 10.8 01:32:43 13° SE 01:36:23 14° SE 01:43:29 10° E visible
27 Apr 10.3 03:37:28 17° SSW 03:49:07 48° SE 04:07:35 10° ENE visible
28 Apr 10.2 02:29:47 23° S 02:36:07 32° SE 02:51:15 10° E visible
28 Apr 10.2 04:35:08 10° SW 04:50:32 70° SSE 05:10:36 10° ENE visible
29 Apr 10.6 01:22:04 17° SE 01:23:57 17° SE 01:32:49 10° E visible
29 Apr 10.0 03:26:49 23° SSW 03:36:34 54° SE 03:55:18 10° ENE visible
